Location: Bastelaar
(51.0950°N, 3.8602°E)
Time: 16:51:40
(UTC+00:00)

Cosmos 1602 - Pass Details

Date: 18 November 2025
Orbit: 368 x 376 km, 82.5° (Epoch: 08 December)

Event Time Altitude Azimuth Distance (km) Brightness Sun altitude
Rises 17:40:31 0° 347° (NNW) 2,286 7.0 -16.6°
Reaches altitude 10° 17:42:31 10° 345° (NNW) 1,429 6.0 -16.9°
Maximum altitude 17:45:36 68° 263° (W) 425 3.4 -17.4°
Drops below altitude 10° 17:48:40 10° 179° (S) 1,424 6.0 -17.9°
Sets 17:50:40 0° 177° (S) 2,276 7.0 -18.2°
